DMSP 5D-2 F11 DEB, 29070

Orbit data source: Space-Track

DMSP 5D-2 F11 DEB, 29070 is space debris in SSO originally from a launch on Thu, 28 Nov 1991 UTC launched from the Air Force Western Test Range (AFWTR). Debris objects in space refer to the collection of defunct objects orbiting the Earth. Examples of debris include non-operational satellites, rocket bodies, and fragments generated from explosions, collisions, or faulty payload assembly.

Loading next visibility...
Identifier
29070, 1991-082BR
Orbit
SSO
Country
Flag of USUS
Related business
Manufacturer
Unknown
Mission
Spacecraft
Bus & Motor
Unknown
Mass
Unknown
Launch date (UTC)
1991-11-28 (34 years ago)
Launch vehicle
Unknown
Launch site
Air Force Western Test Range (AFWTR)
Object type
Payload
Rocket body
Debris
Shape & HBR
Unknown shape, 0.1 m
Radar Cross Section
Small (<0.1 m²)

Expand to show TLE details & history
Last TLE update: 2 days ago

TLE from 2 days ago
0 DMSP 5D-2 F11 DEB
1 29070U 91082BR  25348.52971412  .00027312  00000-0  34393-2 0  9990
2 29070  98.5901  96.6184 0008348 249.4568 110.5748 14.81949941105481
Epoch: 2025-12-14T12:42Z
TLE epoch observation values (Epoch: 2025-12-14T12:42:47.299Z)
Latitude
0.00001°
Longitude
-177.52°
Altitude
628.237 km
Speed
7.543 km/s
True Right ascension
06h 26m 28s
True Declination
0° 00' 00"
Sunlit
Object was in full shadow at epoch
Visualization orbit readout
Latitude
Unknown
Longitude
Unknown
Altitude
Unknown
Speed
Unknown
Apparent Right ascension
Unknown
Apparent Declination
Unknown
Sunlit
N/A
Visualization observer readout
Local Sidereal Time
08:35:32
Azimuth
Unknown
Elevation
Unknown
Doppler factor
Unknown
Orbital elements
Apogee altitude
626.089 km
Perigee altitude
614.404 km
Semi-major axis
6,998.383 km
Eccentricity
0.00083
Inclination
98.5901°
RAAN
96.6184°
Arg. of periapsis
249.4568°
True anomaly
110.66433°
Mean anomaly
110.5748°
Eccentric anomaly
110.61957°
Mean motion
3.7072 °/min
Orbital period
97.11 mins
BSTAR
0.0034393
Loading maneuver chart data...
Computing Atmospheric mass density...

Documentation

Showing up to 5 results
|